Location: Unspecified
(0.0000°N, 0.0000°E)
Time: 09:51:31
(UTC+00:00)

deb Explorer IX - Pass Details

Date: 14 December 2018
Orbit: 538 x 1115 km, 38.8° (Epoch: 17 January)

Event Time Altitude Azimuth Distance (km) Brightness Sun altitude
Rises 14:27:47 0° 223° (SW) 3,534 ? 46.2°
Reaches altitude 10° 14:30:36 10° 219° (SW) 2,493 ? 45.6°
Maximum altitude 14:36:22 59° 140° (SE) 867 ? 44.4°
Drops below altitude 10° 14:41:12 10° 60° (ENE) 2,102 ? 43.4°
Sets 14:43:25 0° 57° (ENE) 2,936 ? 42.9°
